| time (UTC) | temp F | wind direction | speed knots | gust knots | rain 1hr in | rain 24hr in | rain mn in | humidity % | barometer mb |
| 20260504195057 | 73 | 150 | 1.7 | 2.6 | 0.00 | 0.00 | 0.00 | 34 | 1010.5 |
| 20260504194554 | 74 | 148 | 3.5 | 5.2 | 0.00 | 0.00 | 0.00 | 31 | 1010.5 |
| 20260504194049 | 75 | 143 | 3.5 | 7.0 | 0.00 | 0.00 | 0.00 | 33 | 1010.5 |
| 20260504193546 | 75 | 233 | 1.7 | 2.6 | 0.00 | 0.00 | 0.00 | 35 | 1010.4 |
| 20260504193045 | 73 | 116 | 1.7 | 1.7 | 0.00 | 0.00 | 0.00 | 33 | 1010.5 |
| 20260504192543 | 74 | 136 | 0.0 | 0.9 | 0.00 | 0.00 | 0.00 | 33 | 1010.7 |
| 20260504192041 | 74 | 125 | 0.0 | 0.9 | 0.00 | 0.00 | 0.00 | 33 | 1010.5 |
| 20260504191538 | 75 | 175 | 1.7 | 1.7 | 0.00 | 0.00 | 0.00 | 32 | 1010.9 |
| 20260504191034 | 74 | 281 | 3.5 | 3.5 | 0.00 | 0.00 | 0.00 | 33 | 1010.9 |
| 20260504190531 | 73 | 156 | 1.7 | 3.5 | 0.00 | 0.00 | 0.00 | 33 | 1011.1 |
| 20260504190027 | 73 | 26 | 0.9 | 0.9 | 0.00 | 0.00 | 0.00 | 32 | 1011.1 |
| 20260504185524 | 73 | 117 | 1.7 | 2.6 | 0.00 | 0.00 | 0.00 | 32 | 1011.2 |
| 20260504185020 | 73 | 328 | 3.5 | 6.1 | 0.00 | 0.00 | 0.00 | 33 | 1011.2 |
| 20260504184515 | 73 | 122 | 0.0 | 0.9 | 0.00 | 0.00 | 0.00 | 34 | 1011.2 |
| 20260504184011 | 72 | 162 | 1.7 | 2.6 | 0.00 | 0.00 | 0.00 | 37 | 1011.3 |
| 20260504183509 | 74 | 359 | 3.5 | 6.1 | 0.00 | 0.00 | 0.00 | 34 | 1011.4 |
| 20260504183007 | 72 | 16 | 5.2 | 7.0 | 0.00 | 0.00 | 0.00 | 34 | 1011.4 |
| 20260504182503 | 72 | 350 | 6.1 | 7.0 | 0.00 | 0.00 | 0.00 | 35 | 1011.5 |
| 20260504182001 | 73 | 250 | 1.7 | 1.7 | 0.00 | 0.00 | 0.00 | 34 | 1011.6 |
| 20260504181457 | 72 | 186 | 2.6 | 5.2 | 0.00 | 0.00 | 0.00 | 38 | 1011.4 |
| 20260504180956 | 71 | 7 | 3.5 | 3.5 | 0.00 | 0.00 | 0.00 | 34 | 1011.6 |
| 20260504180455 | 71 | 321 | 4.3 | 5.2 | 0.00 | 0.00 | 0.00 | 35 | 1011.6 |
| 20260504175953 | 73 | 33 | 1.7 | 3.5 | 0.00 | 0.00 | 0.00 | 34 | 1011.6 |
| 20260504175450 | 71 | 320 | 1.7 | 2.6 | 0.00 | 0.00 | 0.00 | 35 | 1011.8 |
| 20260504174947 | 72 | 21 | 5.2 | 7.0 | 0.00 | 0.00 | 0.00 | 33 | 1011.9 |
| 20260504174444 | 71 | 216 | 2.6 | 3.5 | 0.00 | 0.00 | 0.00 | 35 | 1011.9 |
| 20260504173942 | 70 | 125 | 0.9 | 0.9 | 0.00 | 0.00 | 0.00 | 36 | 1012.0 |
| 20260504173437 | 71 | 176 | 4.3 | 6.1 | 0.00 | 0.00 | 0.00 | 35 | 1012.2 |
| 20260504172936 | 71 | 153 | 1.7 | 1.7 | 0.00 | 0.00 | 0.00 | 37 | 1012.0 |
| 20260504172431 | 71 | 49 | 1.7 | 2.6 | 0.00 | 0.00 | 0.00 | 35 | 1012.1 |
| 20260504171928 | 69 | 234 | 2.6 | 3.5 | 0.00 | 0.00 | 0.00 | 36 | 1012.3 |
| 20260504171425 | 70 | 1 | 3.5 | 3.5 | 0.00 | 0.00 | 0.00 | 36 | 1012.3 |
| 20260504170922 | 71 | 131 | 2.6 | 5.2 | 0.00 | 0.00 | 0.00 | 36 | 1012.5 |
| 20260504170418 | 69 | 126 | 0.9 | 1.7 | 0.00 | 0.00 | 0.00 | 36 | 1012.5 |
| 20260504160337 | 69 | 166 | 1.7 | 2.6 | 0.00 | 0.00 | 0.00 | 35 | 1013.4 |
| 20260504150802 | 66 | 336 | 5.2 | 7.0 | 0.00 | 0.00 | 0.00 | 39 | 1013.8 |
| 20260504150259 | 66 | 162 | 7.0 | 9.6 | 0.00 | 0.00 | 0.00 | 40 | 1013.8 |
| 20260504141229 | 64 | 83 | 2.6 | 3.5 | 0.00 | 0.00 | 0.00 | 50 | 1014.1 |
| 20260504140725 | 64 | 153 | 0.9 | 1.7 | 0.00 | 0.00 | 0.00 | 50 | 1014.1 |
| 20260504140220 | 63 | 8 | 2.6 | 5.2 | 0.00 | 0.00 | 0.00 | 52 | 1014.1 |
| 20260504130649 | 59 | 359 | 1.7 | 2.6 | 0.00 | 0.00 | 0.00 | 59 | 1014.4 |
| 20260504130145 | 59 | 155 | 1.7 | 2.6 | 0.00 | 0.00 | 0.00 | 59 | 1014.5 |
| 20260504120110 | 55 | 173 | 0.9 | 0.9 | 0.00 | 0.00 | 0.00 | 67 | 1014.6 |
| 20260504110537 | 50 | 174 | 0.9 | 0.9 | 0.00 | 0.00 | 0.00 | 74 | 1015.1 |
| 20260504100459 | 47 | 267 | 2.6 | 2.6 | 0.00 | 0.00 | 0.00 | 73 | 1014.9 |
| 20260504081857 | 45 | 133 | 0.0 | 0.0 | 0.00 | 0.00 | 0.00 | 65 | 1015.1 |
| 20260504081354 | 45 | 131 | 0.0 | 0.0 | 0.00 | 0.00 | 0.00 | 63 | 1014.9 |
| 20260504080850 | 46 | 97 | 0.0 | 0.9 | 0.00 | 0.00 | 0.00 | 61 | 1014.9 |
| 20260504080348 | 46 | 126 | 0.0 | 0.0 | 0.00 | 0.00 | 0.00 | 62 | 1014.9 |
| 20260504070315 | 46 | 142 | 0.0 | 0.0 | 0.00 | 0.00 | 0.00 | 57 | 1014.8 |
| 20260504060235 | 48 | 123 | 0.0 | 0.0 | 0.00 | 0.00 | 0.00 | 56 | 1014.8 |
| 20260504050703 | 46 | 148 | 0.0 | 0.0 | 0.00 | 0.00 | 0.00 | 57 | 1014.6 |
| 20260504050200 | 46 | 142 | 0.0 | 0.0 | 0.00 | 0.00 | 0.00 | 57 | 1014.8 |
| 20260504045658 | 46 | 138 | 0.0 | 0.0 | 0.00 | 0.00 | 0.00 | 56 | 1014.9 |
| 20260504045157 | 46 | 142 | 0.0 | 0.0 | 0.00 | 0.00 | 0.00 | 56 | 1014.8 |
| 20260504044655 | 47 | 143 | 0.0 | 0.0 | 0.00 | 0.00 | 0.00 | 57 | 1014.7 |
| 20260504044152 | 47 | 146 | 0.0 | 0.0 | 0.00 | 0.00 | 0.00 | 57 | 1014.8 |
| 20260504043649 | 47 | 147 | 0.0 | 0.0 | 0.00 | 0.00 | 0.00 | 57 | 1014.5 |
| 20260504043146 | 47 | 126 | 0.0 | 0.0 | 0.00 | 0.00 | 0.00 | 56 | 1014.6 |
| 20260504042644 | 48 | 147 | 0.0 | 0.0 | 0.00 | 0.00 | 0.00 | 54 | 1014.5 |
| 20260504042140 | 47 | 149 | 0.0 | 0.0 | 0.00 | 0.00 | 0.00 | 53 | 1014.6 |
| 20260504041636 | 47 | 149 | 0.0 | 0.0 | 0.00 | 0.00 | 0.00 | 55 | 1014.4 |
| 20260504041132 | 47 | 147 | 0.0 | 0.0 | 0.00 | 0.00 | 0.00 | 56 | 1014.3 |
| 20260504040630 | 48 | 144 | 0.0 | 0.0 | 0.00 | 0.00 | 0.00 | 54 | 1014.4 |
| 20260504040127 | 49 | 157 | 0.0 | 0.0 | 0.00 | 0.00 | 0.00 | 53 | 1014.3 |
| 20260504035623 | 49 | 140 | 0.0 | 0.0 | 0.00 | 0.00 | 0.00 | 51 | 1014.3 |
| 20260504035120 | 49 | 147 | 0.0 | 0.0 | 0.00 | 0.00 | 0.00 | 51 | 1014.2 |
| 20260504034618 | 49 | 142 | 0.0 | 0.0 | 0.00 | 0.00 | 0.00 | 51 | 1014.2 |
| 20260504034114 | 49 | 148 | 0.0 | 0.0 | 0.00 | 0.00 | 0.00 | 51 | 1014.2 |
| 20260504033612 | 49 | 30 | 0.0 | 0.9 | 0.00 | 0.00 | 0.00 | 54 | 1014.1 |
| 20260504033109 | 49 | 143 | 0.0 | 0.0 | 0.00 | 0.00 | 0.00 | 51 | 1014.2 |
| 20260504032606 | 49 | 129 | 0.0 | 0.0 | 0.00 | 0.00 | 0.00 | 51 | 1014.2 |
| 20260504032103 | 49 | 146 | 0.0 | 0.0 | 0.00 | 0.00 | 0.00 | 52 | 1014.0 |
| 20260504031600 | 49 | 138 | 0.0 | 0.0 | 0.00 | 0.00 | 0.00 | 50 | 1014.1 |
| 20260504031056 | 50 | 152 | 0.0 | 0.0 | 0.00 | 0.00 | 0.00 | 50 | 1014.0 |
| 20260504030553 | 50 | 148 | 0.0 | 0.0 | 0.00 | 0.00 | 0.00 | 49 | 1013.9 |
| 20260504030049 | 50 | 157 | 0.0 | 0.0 | 0.00 | 0.00 | 0.00 | 49 | 1014.0 |
| 20260504025547 | 50 | 141 | 0.0 | 0.0 | 0.00 | 0.00 | 0.00 | 49 | 1014.1 |
| 20260504025044 | 50 | 162 | 0.0 | 0.0 | 0.00 | 0.00 | 0.00 | 50 | 1014.0 |
| 20260504024541 | 49 | 154 | 0.0 | 0.0 | 0.00 | 0.00 | 0.00 | 50 | 1014.1 |
| 20260504024038 | 49 | 149 | 0.0 | 0.0 | 0.00 | 0.00 | 0.00 | 50 | 1014.1 |
| 20260504023534 | 49 | 142 | 0.0 | 0.0 | 0.00 | 0.00 | 0.00 | 50 | 1014.2 |
| 20260504023030 | 49 | 141 | 0.0 | 0.0 | 0.00 | 0.00 | 0.00 | 51 | 1014.0 |
| 20260504022526 | 50 | 130 | 0.0 | 0.0 | 0.00 | 0.00 | 0.00 | 49 | 1014.0 |
| 20260504022023 | 50 | 146 | 0.0 | 0.0 | 0.00 | 0.00 | 0.00 | 50 | 1014.0 |
| 20260504021520 | 50 | 139 | 0.0 | 0.0 | 0.00 | 0.00 | 0.00 | 49 | 1014.2 |
| 20260504021017 | 50 | 138 | 0.0 | 0.0 | 0.00 | 0.00 | 0.00 | 49 | 1014.0 |
| 20260504020514 | 50 | 150 | 0.0 | 0.0 | 0.00 | 0.00 | 0.00 | 49 | 1014.1 |
| 20260504020011 | 50 | 151 | 0.0 | 0.0 | 0.00 | 0.00 | 0.00 | 49 | 1014.0 |
| 20260504015507 | 50 | 153 | 0.0 | 0.0 | 0.00 | 0.00 | 0.00 | 51 | 1014.0 |
| 20260504015003 | 50 | 146 | 0.0 | 0.0 | 0.00 | 0.00 | 0.00 | 50 | 1014.1 |
| 20260504014459 | 50 | 145 | 0.0 | 0.0 | 0.00 | 0.00 | 0.00 | 50 | 1014.0 |
| 20260504013956 | 50 | 155 | 0.0 | 0.0 | 0.00 | 0.00 | 0.00 | 48 | 1013.9 |
| 20260504013454 | 50 | 143 | 0.0 | 0.0 | 0.00 | 0.00 | 0.00 | 50 | 1013.9 |
| 20260504012950 | 50 | 148 | 0.0 | 0.0 | 0.00 | 0.00 | 0.00 | 48 | 1013.9 |
| 20260504012448 | 50 | 144 | 0.0 | 0.0 | 0.00 | 0.00 | 0.00 | 48 | 1014.0 |
| 20260504011946 | 51 | 149 | 0.0 | 0.0 | 0.00 | 0.00 | 0.00 | 48 | 1013.8 |
| 20260504011442 | 51 | 150 | 0.0 | 0.0 | 0.00 | 0.00 | 0.00 | 48 | 1013.8 |
| 20260504010938 | 51 | 148 | 0.0 | 0.0 | 0.00 | 0.00 | 0.00 | 47 | 1013.7 |
| 20260504010434 | 51 | 155 | 0.0 | 0.0 | 0.00 | 0.00 | 0.00 | 46 | 1013.5 |
| 20260504005930 | 52 | 148 | 0.0 | 0.0 | 0.00 | 0.00 | 0.00 | 45 | 1013.5 |
| 20260504005427 | 52 | 148 | 0.0 | 0.0 | 0.00 | 0.00 | 0.00 | 45 | 1013.5 |
| 20260504004925 | 52 | 151 | 0.0 | 0.0 | 0.00 | 0.00 | 0.00 | 44 | 1013.5 |
| 20260504004422 | 52 | 161 | 0.0 | 0.0 | 0.00 | 0.00 | 0.00 | 44 | 1013.3 |
| 20260504003919 | 53 | 140 | 0.0 | 0.0 | 0.00 | 0.00 | 0.00 | 45 | 1013.5 |
| 20260504003415 | 53 | 175 | 0.0 | 0.0 | 0.00 | 0.00 | 0.00 | 43 | 1013.2 |
| 20260504002912 | 53 | 148 | 0.0 | 0.0 | 0.00 | 0.00 | 0.00 | 43 | 1013.2 |
| 20260504002409 | 53 | 144 | 0.0 | 0.0 | 0.00 | 0.00 | 0.00 | 42 | 1013.2 |
| 20260504001907 | 54 | 147 | 0.0 | 0.0 | 0.00 | 0.00 | 0.00 | 41 | 1012.9 |
| 20260504001404 | 54 | 149 | 0.0 | 0.0 | 0.00 | 0.00 | 0.00 | 41 | 1013.0 |
| 20260504000900 | 55 | 142 | 0.0 | 0.0 | 0.00 | 0.00 | 0.00 | 40 | 1013.0 |
| 20260504000358 | 55 | 147 | 0.0 | 0.0 | 0.00 | 0.00 | 0.00 | 41 | 1013.0 |
| 20260503235855 | 55 | 145 | 0.0 | 0.0 | 0.00 | 0.00 | 0.00 | 40 | 1012.8 |
| 20260503235353 | 56 | 140 | 0.0 | 0.0 | 0.00 | 0.00 | 0.00 | 42 | 1012.8 |
| 20260503234850 | 57 | 146 | 0.0 | 0.0 | 0.00 | 0.00 | 0.00 | 39 | 1012.8 |
| 20260503234348 | 57 | 300 | 1.7 | 2.6 | 0.00 | 0.00 | 0.00 | 36 | 1012.9 |
| 20260503233845 | 57 | 331 | 2.6 | 3.5 | 0.00 | 0.00 | 0.00 | 35 | 1012.8 |
| 20260503233341 | 58 | 98 | 1.7 | 2.6 | 0.00 | 0.00 | 0.00 | 37 | 1012.7 |
| 20260503232837 | 58 | 127 | 0.9 | 1.7 | 0.00 | 0.00 | 0.00 | 35 | 1012.7 |
| 20260503232335 | 58 | 125 | 2.6 | 3.5 | 0.00 | 0.00 | 0.00 | 35 | 1012.5 |
| 20260503231833 | 58 | 329 | 1.7 | 1.7 | 0.00 | 0.00 | 0.00 | 35 | 1012.6 |
| 20260503231330 | 59 | 262 | 1.7 | 2.6 | 0.00 | 0.00 | 0.00 | 35 | 1012.7 |
| 20260503230825 | 59 | 222 | 3.5 | 6.1 | 0.00 | 0.00 | 0.00 | 32 | 1012.4 |
| 20260503230323 | 59 | 77 | 0.9 | 0.9 | 0.00 | 0.00 | 0.00 | 35 | 1012.5 |
| 20260503225820 | 59 | 70 | 2.6 | 3.5 | 0.00 | 0.00 | 0.00 | 35 | 1012.3 |
| 20260503225316 | 59 | 1 | 1.7 | 2.6 | 0.00 | 0.00 | 0.00 | 35 | 1012.4 |
| 20260503224813 | 59 | 293 | 1.7 | 2.6 | 0.00 | 0.00 | 0.00 | 35 | 1012.4 |
| 20260503224310 | 60 | 336 | 6.1 | 9.6 | 0.00 | 0.00 | 0.00 | 32 | 1012.5 |
| 20260503223808 | 60 | 227 | 3.5 | 3.5 | 0.00 | 0.00 | 0.00 | 32 | 1012.4 |
| 20260503223305 | 60 | 354 | 4.3 | 6.1 | 0.00 | 0.00 | 0.00 | 31 | 1012.4 |
| 20260503222800 | 59 | 141 | 1.7 | 2.6 | 0.00 | 0.00 | 0.00 | 34 | 1012.4 |
| 20260503222259 | 60 | 102 | 2.6 | 5.2 | 0.00 | 0.00 | 0.00 | 32 | 1012.4 |
| 20260503221757 | 60 | 293 | 5.2 | 6.1 | 0.00 | 0.00 | 0.00 | 31 | 1012.4 |
| 20260503221255 | 61 | 152 | 2.6 | 2.6 | 0.00 | 0.00 | 0.00 | 32 | 1012.1 |
| 20260503220751 | 61 | 123 | 0.9 | 1.7 | 0.00 | 0.00 | 0.00 | 33 | 1012.4 |
| 20260503220248 | 60 | 32 | 2.6 | 3.5 | 0.00 | 0.00 | 0.00 | 34 | 1012.4 |
| 20260503215745 | 60 | 348 | 5.2 | 7.0 | 0.00 | 0.00 | 0.00 | 31 | 1012.2 |
| 20260503215242 | 60 | 222 | 1.7 | 2.6 | 0.00 | 0.00 | 0.00 | 32 | 1012.4 |
| 20260503214740 | 60 | 42 | 3.5 | 7.0 | 0.00 | 0.00 | 0.00 | 31 | 1012.4 |
| 20260503214236 | 61 | 121 | 3.5 | 3.5 | 0.00 | 0.00 | 0.00 | 32 | 1012.4 |
| 20260503213735 | 60 | 264 | 2.6 | 3.5 | 0.00 | 0.00 | 0.00 | 32 | 1012.3 |
| 20260503213232 | 60 | 97 | 3.5 | 6.1 | 0.00 | 0.00 | 0.00 | 33 | 1012.1 |
| 20260503212728 | 60 | 5 | 3.5 | 5.2 | 0.00 | 0.00 | 0.00 | 32 | 1012.2 |
| 20260503212226 | 60 | 332 | 3.5 | 6.1 | 0.00 | 0.00 | 0.00 | 31 | 1012.3 |
| 20260503211723 | 60 | 70 | 3.5 | 3.5 | 0.00 | 0.00 | 0.00 | 34 | 1012.2 |
| 20260503211219 | 59 | 295 | 6.1 | 8.7 | 0.00 | 0.00 | 0.00 | 33 | 1012.3 |
| 20260503210715 | 59 | 343 | 6.1 | 7.8 | 0.00 | 0.00 | 0.00 | 30 | 1012.4 |
| 20260503210213 | 59 | 292 | 3.5 | 5.2 | 0.00 | 0.00 | 0.00 | 34 | 1012.2 |
| 20260503205708 | 60 | 193 | 2.6 | 5.2 | 0.00 | 0.00 | 0.00 | 33 | 1012.3 |
| 20260503205204 | 60 | 342 | 5.2 | 6.1 | 0.00 | 0.00 | 0.00 | 33 | 1012.2 |
| 20260503204700 | 60 | 348 | 3.5 | 5.2 | 0.00 | 0.00 | 0.00 | 36 | 1012.4 |
| 20260503204159 | 60 | 22 | 7.0 | 8.7 | 0.00 | 0.00 | 0.00 | 34 | 1012.5 |
| 20260503203655 | 60 | 3 | 4.3 | 5.2 | 0.00 | 0.00 | 0.00 | 32 | 1012.5 |
| 20260503203153 | 60 | 354 | 7.8 | 9.6 | 0.00 | 0.00 | 0.00 | 31 | 1012.3 |
| 20260503202650 | 58 | 316 | 3.5 | 5.2 | 0.00 | 0.00 | 0.00 | 35 | 1012.6 |
| 20260503202148 | 58 | 296 | 3.5 | 5.2 | 0.00 | 0.00 | 0.00 | 35 | 1012.5 |
| 20260503201646 | 60 | 218 | 2.6 | 3.5 | 0.00 | 0.00 | 0.00 | 33 | 1012.4 |
| 20260503201143 | 60 | 210 | 3.5 | 5.2 | 0.00 | 0.00 | 0.00 | 32 | 1012.7 |
| 20260503200639 | 59 | 2 | 6.1 | 7.0 | 0.00 | 0.00 | 0.00 | 33 | 1012.6 |
| 20260503200135 | 59 | 144 | 3.5 | 5.2 | 0.00 | 0.00 | 0.00 | 34 | 1012.6 |
| 20260503195633 | 60 | 226 | 3.5 | 5.2 | 0.00 | 0.00 | 0.00 | 34 | 1012.5 |